Theta_e
336 337 339 342 342 341 337 336 332 327 327 333 333 340 343 345 345 343 341 344 345 343 340 338 340 342 344 345 346 346 346 347 348 349 350 352 354 355
337 336 337 338 336 335 336 335 333 331 326 333 333 339 343 347 348 343 341 341 340 339 338 336 338 340 341 341 342 342 342 343 343 344 344 345 347 348
336 336 336 337 336 334 335 334 333 332 329 332 334 338 339 341 346 343 340 340 339 338 336 335 335 336 338 339 339 339 340 340 340 341 342 343 344 343
335 333 333 336 332 333 333 331 331 333 331 328 333 335 335 336 340 337 339 340 337 338 337 337 337 335 335 334 334 334 333 334 336 337 339 341 342 342
332 332 332 332 332 332 331 332 332 334 333 332 331 334 335 337 339 341 342 341 340 342 340 339 338 337 334 333 331 330 328 327 328 330 333 336 337 340
331 331 333 332 331 331 331 331 331 330 330 329 330 332 333 336 335 336 336 339 342 348 350 346 342 339 336 334 332 330 326 321 321 323 325 325 328 334
330 330 332 333 335 333 331 329 327 327 327 326 327 328 330 330 330 333 333 336 338 343 345 348 348 346 343 337 340 335 328 324 321 320 322 321 322 327
327 328 329 333 332 330 330 330 329 323 323 323 324 324 325 328 332 331 332 332 330 339 340 342 346 346 348 345 340 335 328 325 322 320 320 320 320 322
326 327 328 330 330 330 328 328 328 327 327 326 323 323 323 327 329 329 330 331 332 337 336 336 343 344 343 349 334 329 326 323 322 321 320 319 319 319
327 327 327 327 328 328 327 325 325 326 327 328 326 326 327 330 331 331 331 331 334 337 339 333 338 341 338 334 331 328 325 322 321 320 319 318 316 315
326 327 327 327 325 321 321 321 320 322 324 322 322 321 321 321 323 324 323 326 327 329 335 335 337 338 337 334 332 329 324 323 320 321 321 317 313 312
324 326 324 323 318 315 319 319 317 320 320 320 321 322 323 324 322 324 325 322 324 325 332 333 335 337 334 340 332 336 336 318 316 318 320 317 311 321
321 321 322 317 312 309 309 314 316 317 316 316 318 320 321 322 323 325 326 325 324 325 332 335 334 336 336 333 337 341 336 327 325 320 314 315 310 323
318 319 320 312 308 307 308 310 309 310 315 317 318 319 320 321 322 323 324 327 332 330 334 337 335 332 334 326 329 331 331 339 335 332 329 320 311 313
319 318 313 309 307 309 312 311 311 319 319 317 316 317 319 322 324 324 325 327 332 336 338 338 338 337 336 333 330 326 324 325 335 338 335 329 326 321
318 313 311 310 310 313 315 319 320 320 319 318 317 319 321 321 321 322 323 327 330 333 340 342 340 339 336 334 332 331 326 325 333 337 341 339 332 329
301 307 314 316 319 318 318 318 318 319 319 319 318 318 320 320 322 326 327 329 328 329 332 339 339 340 339 338 335 337 336 336 338 336 338 339 339 334
306 316 319 318 317 318 318 318 319 319 320 320 318 316 318 323 323 326 327 327 327 328 330 332 331 329 330 331 331 335 336 340 341 339 338 337 337 339
318 318 318 318 318 317 315 316 317 318 319 320 319 315 315 317 319 326 324 328 328 329 330 331 327 327 328 327 321 314 335 340 340 337 338 335 335 339
316 317 313 314 311 310 312 310 309 312 312 313 317 318 314 313 314 315 319 327 326 324 325 323 324 326 330 327 326 315 306 320 332 333 328 323 320 319
313 315 311 309 307 306 306 307 305 305 305 306 310 317 315 312 311 313 314 311 316 324 321 321 322 319 328 325 319 314 313 309 311 325 326 322 321 321
311 310 308 306 304 302 301 301 300 300 300 301 302 308 316 314 312 312 312 313 315 317 318 319 321 322 320 318 316 312 312 315 312 310 308 310 319 317
307 308 305 302 300 297 295 295 294 293 295 297 298 302 306 315 314 313 312 313 313 315 316 317 318 318 316 314 313 314 314 313 312 311 310 307 307 308
Wind_Speed
7 8 7 9 5 6 5 6 7 11 11 9 4 7 8 2 7 5 6 13 15 18 15 10 14 16 15 16 17 15 15 16 15 15 13 14 14 13
6 7 6 8 7 4 4 5 4 6 11 10 7 2 7 2 4 6 7 11 13 12 12 11 11 13 18 19 18 16 16 16 15 14 14 13 12 11
9 6 8 7 6 5 5 5 6 5 10 13 8 6 8 8 6 5 7 6 7 15 13 12 14 14 19 18 16 14 16 16 15 15 13 13 12 11
10 8 8 8 7 6 6 7 7 10 7 14 12 9 8 8 6 6 7 7 7 14 16 13 16 15 16 16 17 17 16 16 15 15 14 13 13 13
7 7 9 10 10 8 6 7 8 7 6 7 12 8 8 4 6 7 6 7 7 17 20 21 17 18 18 21 19 15 15 16 14 14 15 15 13 13
8 9 9 8 9 10 9 9 9 7 6 6 7 8 6 7 5 8 9 5 7 8 12 13 11 16 18 18 18 16 16 16 14 15 15 14 14 13
8 9 9 10 14 13 9 10 9 7 7 7 6 7 7 6 7 7 7 8 6 6 8 6 6 6 6 12 17 17 18 16 15 16 15 16 15 14
10 11 10 11 12 15 15 16 12 6 7 6 6 7 8 7 7 7 9 8 12 7 9 11 7 9 6 5 14 17 19 18 17 17 17 17 16 15
11 11 10 10 11 9 14 14 12 13 15 8 8 9 9 9 7 9 10 10 11 10 4 11 3 6 4 4 12 15 16 17 19 19 19 17 17 16
11 12 11 12 12 12 10 9 8 7 9 8 9 9 8 9 9 10 11 12 11 9 7 12 8 8 4 5 9 11 13 16 17 19 20 18 17 17
10 11 10 11 14 13 6 6 7 9 9 13 15 16 17 16 13 8 10 10 13 12 8 8 11 7 4 5 6 12 13 19 17 19 19 19 17 16
9 9 13 11 12 5 2 4 7 11 9 13 12 13 14 13 17 15 11 11 11 12 9 9 10 4 4 5 5 4 1 9 13 16 21 20 17 8
6 7 7 12 10 8 9 6 9 11 14 11 12 12 14 14 12 13 15 14 14 15 9 6 7 5 7 4 2 2 4 3 4 5 10 12 18 15
9 8 8 14 18 16 10 9 12 10 7 10 12 13 14 14 15 14 16 15 16 18 11 12 9 6 6 3 4 1 0 3 5 4 7 8 10 13
8 8 15 17 17 8 7 8 8 6 9 11 14 16 16 15 16 14 13 17 19 17 12 12 11 9 8 7 5 4 4 5 4 5 6 9 9 7
7 9 13 16 16 11 6 4 4 6 9 13 14 16 14 9 7 8 10 11 10 10 13 15 15 13 9 8 7 6 5 5 4 6 6 6 8 10
10 5 4 5 4 1 2 4 6 8 10 13 15 17 5 5 6 6 8 7 8 7 9 8 13 13 12 13 7 8 5 5 6 4 4 7 9 10
3 4 7 7 5 5 5 7 7 10 10 12 14 17 14 5 6 5 5 6 7 6 6 4 4 3 3 2 2 7 5 7 5 6 6 9 10 9
7 10 9 9 8 8 8 8 8 9 13 12 9 15 16 13 11 3 4 5 6 6 5 4 5 5 5 8 3 10 6 7 5 5 7 8 8 8
7 7 7 7 8 8 8 9 10 10 11 11 12 9 13 14 12 12 10 4 3 3 3 1 3 3 7 6 4 3 9 2 2 3 4 2 2 3
9 6 7 8 8 9 9 9 10 10 10 11 11 9 9 10 12 13 10 12 8 3 6 5 3 2 2 5 3 2 4 12 4 2 3 3 3 3
8 9 9 9 9 10 10 10 11 11 11 11 12 11 8 8 9 10 12 11 11 7 5 5 5 4 4 4 3 5 2 1 6 15 18 8 2 6
9 8 9 9 9 10 10 10 10 10 10 11 11 11 10 6 7 8 8 11 9 9 8 9 8 8 8 7 6 5 7 6 3 7 9 17 16 15
Wind_Direction
268 269 260 268 245 237 241 243 254 287 286 289 267 264 264 199 197 181 177 202 202 228 243 231 253 245 227 231 232 232 231 235 237 241 239 247 247 250
272 269 261 273 273 262 256 261 257 265 283 283 280 285 304 290 278 264 253 241 231 202 231 232 256 249 235 226 228 226 226 233 233 235 233 236 240 231
280 271 276 263 268 258 262 256 260 265 276 284 282 272 280 283 272 262 255 261 268 273 251 246 257 245 239 236 230 227 230 229 227 228 226 224 218 214
282 276 276 283 270 260 256 258 262 264 254 273 278 280 258 269 236 237 253 239 246 266 265 230 236 246 247 229 232 227 228 226 221 223 219 211 208 208
279 277 278 278 275 273 252 255 266 258 256 260 277 276 275 262 272 260 236 239 236 246 258 270 263 257 238 232 233 228 230 226 219 219 212 201 206 203
285 277 273 260 258 269 267 264 264 264 264 260 268 275 266 271 250 273 279 245 260 254 241 247 234 233 233 232 228 225 225 221 213 212 203 196 203 197
287 281 279 266 261 261 265 272 272 269 273 267 267 276 273 278 265 274 266 280 260 249 264 258 255 244 236 231 240 222 213 209 207 210 198 200 196 194
290 288 278 266 268 267 265 262 250 241 256 265 259 254 272 265 268 268 277 278 280 250 254 262 245 255 250 213 219 214 210 206 200 200 203 200 190 189
283 281 280 278 275 275 275 275 270 232 231 240 250 250 268 269 263 264 262 262 263 271 262 271 231 260 240 229 223 225 218 205 199 198 203 201 190 186
278 277 270 274 274 271 272 270 271 267 254 234 231 249 249 255 248 258 261 269 271 266 249 263 255 254 245 240 235 231 218 206 205 199 197 198 190 184
283 278 273 272 271 272 257 267 285 281 274 263 256 251 252 247 238 264 260 254 264 264 241 244 255 253 219 243 217 234 215 203 205 206 210 192 191 182
293 284 276 271 282 257 250 273 277 278 283 292 286 278 263 251 236 233 238 242 246 259 241 231 246 204 260 214 216 219 162 179 201 226 210 198 171 168
308 308 302 307 317 278 224 244 270 288 296 289 280 276 271 258 251 240 232 225 235 237 221 207 222 219 224 281 297 140 135 112 170 174 218 220 177 179
304 299 298 316 306 304 308 295 296 297 272 274 270 267 267 255 251 243 241 239 236 238 220 208 235 210 226 221 245 147 38 140 181 200 190 185 208 221
285 292 297 298 296 287 300 298 292 297 300 295 285 281 273 265 255 249 237 239 239 231 224 207 219 213 214 217 224 207 147 211 200 188 172 183 186 197
320 300 287 279 270 269 293 318 300 287 294 294 292 289 274 252 235 227 234 225 223 222 219 217 218 212 213 211 200 227 178 199 197 189 179 187 193 198
319 294 325 337 332 330 13 323 311 305 314 317 321 332 258 233 235 232 225 228 220 213 223 212 217 205 209 212 208 222 205 206 201 221 143 222 210 204
298 322 13 351 7 359 338 317 292 300 309 319 340 342 348 255 242 234 229 219 220 213 214 203 199 181 201 180 198 220 208 223 206 179 188 217 229 206
17 24 15 19 3 357 359 342 337 340 337 324 343 346 347 354 7 283 222 219 226 223 222 205 214 189 193 218 146 28 236 221 211 203 199 204 226 212
10 29 10 12 7 355 351 348 340 344 343 337 333 358 356 356 5 10 359 299 211 202 218 275 214 183 197 218 165 122 32 290 208 206 170 126 98 74
2 26 19 19 11 357 352 350 347 349 341 336 340 343 360 358 12 13 10 10 30 60 80 57 348 284 149 119 100 88 43 31 51 297 147 148 175 187
3 13 27 18 13 2 355 353 349 353 349 344 337 337 344 357 6 6 14 19 15 14 68 66 33 36 50 28 92 119 125 45 64 59 51 34 185 193
4 14 21 21 15 2 358 352 350 345 348 341 331 331 330 338 345 354 350 11 358 357 33 67 63 61 66 67 70 80 91 71 51 41 35 29 43 45